Weather History for KUIL - November, 2009

Change the Weather History Date:

Monday, November 16, 2009

  Actual Average Record
Temperature  
Mean Temperature 48 °F 44 °F  
Max Temperature 53 °F 50 °F 59 °F (2008)
Min Temperature 42 °F 38 °F 21 °F (2000)
Degree Days  
Heating Degree Days 17 21  
Month to date heating degree days 313  
Since 1 July heating degree days 1403  
Cooling Degree Days 0 0  
Month to date cooling degree days 0  
Year to date cooling degree days 19  
Moisture  
Dew Point 48 °F    
Average Humidity 94    
Maximum Humidity 100    
Minimum Humidity 77    
Precipitation  
Precipitation 3.31 in 0.54 in 3.31 in (2009)
Month to date precipitation 8.09  
Year to date precipitation 79.12  
Sea Level Pressure  
Sea Level Pressure 29.54 in    
Wind  
Wind Speed 12 mph (South)    
Max Wind Speed 30 mph    
Max Gust Speed 55 mph    
Visibility 5 miles    
Events Rain    
T = Trace of Precipitation, MM = Missing Value Source: NWS Daily Summary

Daily Weather History Graph

Daily Weather History Graph

Search for Another Location

Airport or City:

Trip Planner

Search our weather history database for the weather conditions in past years. The results will help you decide how hot, cold, wet, or windy it might be!

Date:

Astronomy

Nov. 16, 2009 Rise Set
Actual Time 7:26 AM PST 4:39 PM PST
Civil Twilight 6:52 AM PST 5:13 PM PST
Nautical Twilight 6:14 AM PST 5:50 PM PST
Astronomical Twilight 5:37 AM PST 6:27 PM PST
Moon 7:41 AM PST (11/16) 4:11 PM PST (11/16)
Length of Visible Light 10h 20m
Length of Day
9h 12m
New Moon, 0% of the Moon is Illuminated
Nov 16
New Moon
Nov 24
First Quarter
Dec 1
Full
Dec 8
Last Quarter
Dec 16
New

Hourly Weather History & Observations

Time (PST) Temp. Windchill Dew Point Humidity Pressure Visibility Wind Dir Wind Speed Gust Speed Precip Events Conditions
12:09 AM 53.6 °F - 51.8 °F 94% 29.71 in 2.5 mi SSE 24.2 mph 42.6 mph 0.05 in   Overcast
12:53 AM 52.0 °F - 51.1 °F 97% 29.68 in 1.8 mi South 20.7 mph 39.1 mph 0.12 in   Overcast
1:11 AM 51.8 °F - 51.8 °F 100% 29.67 in 2.5 mi South 16.1 mph 32.2 mph 0.06 in   Overcast
1:18 AM 51.8 °F - 51.8 °F 100% 29.67 in 4.0 mi South 19.6 mph 43.7 mph 0.07 in   Overcast
1:35 AM 51.8 °F - 51.8 °F 100% 29.65 in 1.8 mi South 20.7 mph 40.3 mph 0.09 in   Overcast
1:42 AM 51.8 °F - 51.8 °F 100% 29.65 in 2.5 mi South 21.9 mph 39.1 mph 0.10 in   Overcast
1:53 AM 52.0 °F - 51.1 °F 97% 29.65 in 2.0 mi South 19.6 mph 42.6 mph 0.11 in   Overcast
2:53 AM 52.0 °F - 51.1 °F 97% 29.62 in 3.0 mi South 21.9 mph 35.7 mph 0.16 in Rain Light Rain
3:03 AM 53.6 °F - 51.8 °F 94% 29.62 in 1.8 mi South 20.7 mph 41.4 mph 0.02 in Rain Heavy Rain
3:31 AM 53.6 °F - 51.8 °F 94% 29.61 in 2.0 mi South 21.9 mph 38.0 mph 0.20 in Rain Heavy Rain
3:44 AM 53.6 °F - 51.8 °F 94% 29.63 in 1.5 mi SSW 21.9 mph 39.1 mph 0.26 in Rain Heavy Rain
3:53 AM 53.1 °F - 52.0 °F 96% 29.63 in 3.0 mi SSW 17.3 mph 39.1 mph 0.34 in Rain Rain
4:09 AM 51.8 °F - 51.8 °F 100% 29.64 in 6.0 mi SSW 17.3 mph 31.1 mph 0.04 in Rain Light Rain
4:14 AM 51.8 °F - 50.0 °F 94% 29.64 in 7.0 mi SSW 13.8 mph 25.3 mph 0.04 in Rain Light Rain
4:42 AM 53.6 °F - 51.8 °F 94% 29.63 in 5.0 mi SSW 12.7 mph 23.0 mph 0.08 in Rain Light Rain
4:53 AM 52.0 °F - 51.1 °F 97% 29.64 in 5.0 mi SSW 16.1 mph 25.3 mph 0.09 in Rain Light Rain
5:53 AM 51.1 °F - 50.0 °F 96% 29.64 in 5.0 mi SSW 13.8 mph 20.7 mph 0.09 in Rain Rain
6:53 AM 51.1 °F - 48.9 °F 92% 29.62 in 8.0 mi South 11.5 mph 18.4 mph 0.06 in Rain Light Rain
7:53 AM 50.0 °F - 48.9 °F 96% 29.62 in 4.0 mi South 10.4 mph 21.9 mph 0.16 in Rain Rain
8:07 AM 50.0 °F - 48.2 °F 94% 29.62 in 6.0 mi South 11.5 mph 17.3 mph 0.03 in Rain Rain
8:15 AM 50.0 °F - 48.2 °F 94% 29.63 in 4.0 mi SSE 8.1 mph 17.3 mph 0.05 in Rain Rain
8:26 AM 50.0 °F - 48.2 °F 94% 29.62 in 4.0 mi South 10.4 mph 17.3 mph 0.09 in Rain Rain
8:49 AM 50.0 °F - 48.2 °F 94% 29.62 in 3.0 mi South 6.9 mph 19.6 mph 0.16 in Rain Rain
8:53 AM 50.0 °F - 48.0 °F 93% 29.62 in 3.0 mi SSW 8.1 mph 19.6 mph 0.17 in Rain Rain
9:06 AM 50.0 °F - 48.2 °F 94% 29.61 in 2.5 mi SW 8.1 mph - 0.05 in Rain Heavy Rain
9:38 AM 50.0 °F - 48.2 °F 94% 29.59 in 1.2 mi WSW 9.2 mph 25.3 mph 0.22 in Rain Heavy Rain
9:48 AM 50.0 °F - 48.2 °F 94% 29.60 in 2.0 mi SSW 11.5 mph 16.1 mph 0.30 in Rain Heavy Rain
9:53 AM 50.0 °F - 48.0 °F 93% 29.60 in 2.5 mi SSW 6.9 mph - 0.33 in Rain Rain
10:00 AM 50.0 °F - 48.2 °F 94% 29.60 in 4.0 mi SW 8.1 mph - 0.00 in Rain Rain
10:44 AM 50.0 °F - 46.4 °F 87% 29.63 in 6.0 mi SW 11.5 mph 20.7 mph 0.06 in Rain Light Rain
10:53 AM 50.0 °F - 48.0 °F 93% 29.63 in 6.0 mi SW 10.4 mph - 0.06 in Rain Light Rain
11:15 AM 50.0 °F - 48.2 °F 94% 29.65 in 4.0 mi SSW 11.5 mph 18.4 mph 0.04 in Rain Rain
11:33 AM 50.0 °F - 48.2 °F 94% 29.65 in 5.0 mi SW 11.5 mph 20.7 mph 0.07 in Rain Light Rain
11:53 AM 50.0 °F - 48.9 °F 96% 29.68 in 9.0 mi SSW 9.2 mph 23.0 mph 0.08 in Rain Light Rain
12:36 PM 50.0 °F - 48.2 °F 94% 29.70 in 10.0 mi SW 12.7 mph 17.3 mph 0.00 in   Overcast
12:53 PM 50.0 °F - 46.9 °F 89% 29.70 in 10.0 mi SSW 8.1 mph - 0.00 in   Mostly Cloudy
1:53 PM 48.0 °F - 41.0 °F 77% 29.68 in 8.0 mi SSW 8.1 mph 16.1 mph 0.03 in Rain Light Rain
2:51 PM 46.4 °F 43.5 °F 42.8 °F 87% 29.66 in 4.0 mi Variable 5.8 mph - 0.06 in Rain Rain
2:53 PM 46.0 °F 44.8 °F 43.0 °F 89% 29.66 in 4.0 mi Variable 3.5 mph - 0.06 in Rain Rain
3:36 PM 44.6 °F 42.2 °F 44.6 °F 100% 29.64 in 2.5 mi ESE 4.6 mph - 0.12 in Rain Heavy Rain
3:53 PM 45.0 °F 41.8 °F 43.0 °F 93% 29.63 in 4.0 mi ESE 5.8 mph - 0.18 in Rain Rain
4:53 PM 44.1 °F 40.8 °F 42.1 °F 93% 29.58 in 7.0 mi ENE 5.8 mph - 0.21 in Rain Rain
5:05 PM 44.6 °F 40.2 °F 42.8 °F 93% 29.55 in 6.0 mi ENE 8.1 mph - 0.03 in Rain Rain
5:53 PM 43.0 °F 38.8 °F 41.0 °F 93% 29.48 in 7.0 mi ENE 6.9 mph - 0.21 in Rain Rain
6:43 PM 42.8 °F 38.0 °F 39.2 °F 87% 29.40 in 1.0 mi NNE 8.1 mph - 0.12 in Rain Heavy Rain
6:53 PM 42.1 °F 34.9 °F 41.0 °F 96% 29.37 in 2.0 mi NNE 13.8 mph - 0.16 in Rain Heavy Rain
7:24 PM 42.8 °F 40.1 °F 41.0 °F 93% 29.32 in 1.8 mi NNW 4.6 mph - 0.23 in Rain Heavy Rain
7:33 PM 42.8 °F 39.3 °F 41.0 °F 93% 29.32 in 1.0 mi North 5.8 mph - 0.38 in Rain Heavy Rain
7:41 PM 42.8 °F 39.3 °F 42.8 °F 100% 29.30 in 1.8 mi Variable 5.8 mph - 0.46 in Rain Heavy Rain
7:48 PM 48.2 °F - 46.4 °F 93% 29.28 in 3.0 mi South 25.3 mph 34.5 mph 0.49 in Rain Rain
7:53 PM 52.0 °F - 50.0 °F 93% 29.26 in 3.0 mi SSE 20.7 mph 41.4 mph 0.50 in Rain Rain
8:06 PM 51.8 °F - 50.0 °F 94% 29.26 in 4.0 mi SSE 19.6 mph 46.0 mph 0.02 in Rain Light Rain
8:53 PM 53.1 °F - 51.1 °F 93% 29.26 in 5.0 mi South 12.7 mph 32.2 mph 0.09 in Rain Light Rain
9:16 PM 51.8 °F - 50.0 °F 94% 29.28 in 10.0 mi South 19.6 mph 34.5 mph 0.02 in Rain Light Rain
9:27 PM 51.8 °F - 50.0 °F 94% 29.29 in 10.0 mi South 16.1 mph 27.6 mph 0.02 in   Overcast
9:53 PM 50.0 °F - 48.9 °F 96% 29.31 in 10.0 mi SSW 13.8 mph 29.9 mph 0.02 in Rain Light Rain
10:53 PM 52.0 °F - 50.0 °F 93% 29.32 in 5.0 mi SSW 15.0 mph 40.3 mph 0.07 in Rain Light Rain
11:00 PM 51.8 °F - 50.0 °F 94% 29.32 in 5.0 mi SSW 16.1 mph 31.1 mph 0.02 in Rain Light Rain
11:14 PM 51.8 °F - 48.2 °F 88% 29.33 in 7.0 mi SSW 23.0 mph 35.7 mph 0.03 in Rain Light Rain
11:23 PM 50.0 °F - 46.4 °F 87% 29.34 in 7.0 mi SSW 17.3 mph 38.0 mph 0.04 in Rain Light Rain
11:53 PM 50.0 °F - 46.0 °F 86% 29.37 in 10.0 mi SSW 15.0 mph 24.2 mph 0.04 in   Overcast